| time (UTC) | temp F | wind direction | speed MPH | gust MPH | rain 1hr in | rain 24hr in | rain mn in | humidity % | barometer mb |
| 20260831034021 | 71 | 183 | 0.0 | 2.0 | 0.00 | 0.03 | 0.03 | 77 | 984.7 |
| 20260831033521 | 72 | 183 | 0.0 | 2.0 | 0.00 | 0.03 | 0.03 | 77 | 984.7 |
| 20260831033030 | 72 | 183 | 0.0 | 0.0 | 0.00 | 0.03 | 0.03 | 77 | 984.5 |
| 20260831032521 | 72 | 183 | 0.0 | 0.0 | 0.00 | 0.03 | 0.03 | 77 | 984.6 |
| 20260831032026 | 72 | 183 | 0.0 | 1.0 | 0.00 | 0.03 | 0.03 | 76 | 984.4 |
| 20260831031521 | 72 | 183 | 0.0 | 1.0 | 0.00 | 0.03 | 0.03 | 76 | 984.4 |
| 20260831031025 | 73 | 183 | 0.0 | 2.0 | 0.00 | 0.03 | 0.03 | 75 | 984.3 |
| 20260831030521 | 73 | 183 | 0.0 | 4.0 | 0.00 | 0.03 | 0.03 | 75 | 984.4 |
| 20260831030020 | 73 | 183 | 2.0 | 7.0 | 0.00 | 0.03 | 0.03 | 75 | 984.3 |
| 20260831025520 | 74 | 183 | 2.0 | 7.0 | 0.00 | 0.03 | 0.03 | 73 | 984.3 |
| 20260831025021 | 74 | 167 | 2.0 | 8.0 | 0.00 | 0.03 | 0.03 | 72 | 984.3 |
| 20260831024521 | 74 | 186 | 2.0 | 5.0 | 0.00 | 0.03 | 0.03 | 71 | 984.2 |
| 20260831024025 | 75 | 196 | 2.0 | 5.0 | 0.00 | 0.03 | 0.03 | 71 | 984.2 |
| 20260831023519 | 75 | 195 | 1.0 | 3.0 | 0.00 | 0.03 | 0.03 | 69 | 984.2 |
| 20260831023031 | 76 | 195 | 1.0 | 4.0 | 0.00 | 0.03 | 0.03 | 69 | 984.2 |
| 20260831022519 | 76 | 195 | 0.0 | 4.0 | 0.00 | 0.03 | 0.03 | 69 | 984.1 |
| 20260831022019 | 76 | 195 | 0.0 | 0.0 | 0.00 | 0.03 | 0.03 | 68 | 984.1 |
| 20260831021533 | 77 | 195 | 0.0 | 0.0 | 0.00 | 0.03 | 0.03 | 68 | 984.1 |
| 20260831021022 | 77 | 195 | 0.0 | 2.0 | 0.00 | 0.03 | 0.03 | 67 | 984.1 |
| 20260831020522 | 77 | 195 | 0.0 | 3.0 | 0.00 | 0.03 | 0.03 | 66 | 984.0 |
| 20260831020035 | 78 | 195 | 0.0 | 4.0 | 0.00 | 0.03 | 0.03 | 66 | 984.1 |
| 20260831015522 | 78 | 195 | 1.0 | 4.0 | 0.00 | 0.03 | 0.03 | 65 | 984.0 |
| 20260831015018 | 79 | 195 | 1.0 | 3.0 | 0.00 | 0.03 | 0.03 | 64 | 984.1 |
| 20260831014518 | 79 | 195 | 1.0 | 5.0 | 0.00 | 0.03 | 0.03 | 64 | 984.0 |
| 20260831014018 | 79 | 195 | 2.0 | 6.0 | 0.00 | 0.03 | 0.03 | 64 | 984.1 |
| 20260831013519 | 80 | 183 | 3.0 | 8.0 | 0.00 | 0.03 | 0.03 | 63 | 984.1 |
| 20260831013018 | 80 | 165 | 4.0 | 8.0 | 0.00 | 0.03 | 0.03 | 62 | 984.1 |
| 20260831012519 | 81 | 167 | 1.0 | 6.0 | 0.00 | 0.03 | 0.03 | 62 | 984.1 |
| 20260831012017 | 81 | 167 | 3.0 | 6.0 | 0.00 | 0.03 | 0.03 | 61 | 984.2 |
| 20260831011528 | 81 | 167 | 3.0 | 6.0 | 0.00 | 0.03 | 0.03 | 61 | 984.2 |
| 20260831011017 | 81 | 167 | 3.0 | 6.0 | 0.00 | 0.03 | 0.03 | 61 | 984.2 |
| 20260831010518 | 81 | 169 | 5.0 | 7.0 | 0.00 | 0.03 | 0.03 | 60 | 984.2 |
| 20260831010016 | 82 | 178 | 4.0 | 8.0 | 0.00 | 0.03 | 0.03 | 60 | 984.3 |
| 20260831005516 | 82 | 167 | 5.0 | 8.0 | 0.00 | 0.03 | 0.03 | 59 | 984.3 |
| 20260831005016 | 83 | 188 | 4.0 | 7.0 | 0.00 | 0.03 | 0.03 | 58 | 984.3 |
| 20260831004516 | 84 | 142 | 5.0 | 9.0 | 0.00 | 0.03 | 0.03 | 57 | 984.3 |
| 20260831004015 | 84 | 187 | 4.0 | 9.0 | 0.00 | 0.03 | 0.03 | 56 | 984.3 |
| 20260831003516 | 84 | 189 | 4.0 | 8.0 | 0.00 | 0.03 | 0.03 | 55 | 984.2 |
| 20260831003015 | 85 | 168 | 5.0 | 9.0 | 0.00 | 0.03 | 0.03 | 55 | 984.2 |
| 20260831002515 | 85 | 175 | 4.0 | 7.0 | 0.00 | 0.03 | 0.03 | 54 | 984.1 |
| 20260831002018 | 85 | 165 | 4.0 | 8.0 | 0.00 | 0.03 | 0.03 | 54 | 984.0 |
| 20260831001521 | 86 | 191 | 4.0 | 7.0 | 0.00 | 0.03 | 0.03 | 54 | 983.9 |
| 20260831001016 | 86 | 197 | 4.0 | 8.0 | 0.00 | 0.03 | 0.03 | 54 | 983.9 |
| 20260831000515 | 85 | 189 | 4.0 | 8.0 | 0.00 | 0.03 | 0.03 | 54 | 984.0 |
| 20260831000019 | 86 | 187 | 4.0 | 8.0 | 0.00 | 0.03 | 0.03 | 53 | 984.0 |
| 20260830235515 | 86 | 184 | 3.0 | 8.0 | 0.00 | 0.03 | 0.03 | 52 | 984.0 |
| 20260830235019 | 87 | 231 | 4.0 | 9.0 | 0.00 | 0.03 | 0.03 | 53 | 984.1 |
| 20260830234519 | 87 | 180 | 5.0 | 10.0 | 0.00 | 0.03 | 0.03 | 53 | 984.1 |
| 20260830234016 | 87 | 172 | 6.0 | 11.0 | 0.00 | 0.03 | 0.03 | 53 | 984.2 |
| 20260830233515 | 87 | 202 | 4.0 | 9.0 | 0.00 | 0.03 | 0.03 | 53 | 984.2 |
| 20260830233012 | 87 | 134 | 6.0 | 9.0 | 0.00 | 0.03 | 0.03 | 52 | 984.2 |
| 20260830232511 | 87 | 130 | 4.0 | 7.0 | 0.00 | 0.03 | 0.03 | 51 | 984.2 |
| 20260830232012 | 88 | 163 | 5.0 | 8.0 | 0.00 | 0.03 | 0.03 | 51 | 984.3 |
| 20260830231516 | 88 | 164 | 3.0 | 8.0 | 0.00 | 0.03 | 0.03 | 51 | 984.4 |
| 20260830231009 | 87 | 180 | 4.0 | 7.0 | 0.00 | 0.03 | 0.03 | 52 | 984.5 |
| 20260830230510 | 87 | 183 | 3.0 | 7.0 | 0.00 | 0.03 | 0.03 | 54 | 984.4 |
| 20260830230009 | 86 | 169 | 4.0 | 8.0 | 0.00 | 0.03 | 0.03 | 54 | 984.5 |
| 20260830225509 | 86 | 159 | 5.0 | 8.0 | 0.00 | 0.03 | 0.03 | 54 | 984.5 |
| 20260830225008 | 86 | 184 | 3.0 | 6.0 | 0.00 | 0.03 | 0.03 | 53 | 984.6 |
| 20260830224508 | 86 | 204 | 3.0 | 10.0 | 0.00 | 0.03 | 0.03 | 54 | 984.6 |
| 20260830224008 | 87 | 186 | 4.0 | 10.0 | 0.00 | 0.03 | 0.03 | 53 | 984.8 |
| 20260830223508 | 87 | 201 | 4.0 | 9.0 | 0.00 | 0.03 | 0.03 | 54 | 984.8 |
| 20260830223008 | 86 | 181 | 4.0 | 9.0 | 0.00 | 0.03 | 0.03 | 54 | 984.8 |
| 20260830222508 | 86 | 227 | 5.0 | 9.0 | 0.00 | 0.03 | 0.03 | 54 | 985.0 |
| 20260830222007 | 86 | 217 | 3.0 | 9.0 | 0.00 | 0.03 | 0.03 | 54 | 984.9 |
| 20260830221511 | 87 | 141 | 7.0 | 9.0 | 0.00 | 0.03 | 0.03 | 53 | 985.0 |
| 20260830221007 | 86 | 183 | 3.0 | 7.0 | 0.00 | 0.03 | 0.03 | 55 | 985.0 |
| 20260830220507 | 86 | 194 | 3.0 | 10.0 | 0.00 | 0.03 | 0.03 | 54 | 985.1 |
| 20260830220007 | 86 | 162 | 7.0 | 10.0 | 0.00 | 0.03 | 0.03 | 54 | 985.2 |
| 20260830215507 | 86 | 146 | 3.0 | 9.0 | 0.00 | 0.03 | 0.03 | 53 | 985.3 |
| 20260830215007 | 86 | 177 | 5.0 | 9.0 | 0.00 | 0.03 | 0.03 | 54 | 985.3 |
| 20260830214506 | 86 | 163 | 6.0 | 8.0 | 0.00 | 0.03 | 0.03 | 54 | 985.5 |
| 20260830214006 | 86 | 162 | 5.0 | 11.0 | 0.00 | 0.03 | 0.03 | 54 | 985.5 |
| 20260830213508 | 86 | 207 | 6.0 | 11.0 | 0.00 | 0.03 | 0.03 | 54 | 985.6 |
| 20260830213007 | 85 | 173 | 6.0 | 10.0 | 0.00 | 0.03 | 0.03 | 54 | 985.7 |
| 20260830212508 | 86 | 186 | 6.0 | 8.0 | 0.00 | 0.03 | 0.03 | 53 | 985.8 |
| 20260830212006 | 86 | 165 | 6.0 | 12.0 | 0.00 | 0.03 | 0.03 | 53 | 985.8 |
| 20260830211506 | 87 | 186 | 5.0 | 12.0 | 0.00 | 0.03 | 0.03 | 52 | 985.8 |
| 20260830211006 | 87 | 141 | 6.0 | 11.0 | 0.00 | 0.03 | 0.03 | 53 | 985.8 |
| 20260830210505 | 86 | 146 | 4.0 | 13.0 | 0.00 | 0.03 | 0.03 | 54 | 985.9 |
| 20260830210010 | 86 | 165 | 7.0 | 11.0 | 0.00 | 0.03 | 0.03 | 55 | 985.9 |
| 20260830205505 | 85 | 221 | 3.0 | 8.0 | 0.00 | 0.03 | 0.03 | 56 | 985.9 |
| 20260830205004 | 84 | 173 | 4.0 | 10.0 | 0.00 | 0.03 | 0.03 | 57 | 985.9 |
| 20260830204504 | 84 | 173 | 5.0 | 10.0 | 0.00 | 0.03 | 0.03 | 57 | 986.0 |
| 20260830204004 | 84 | 146 | 5.0 | 8.0 | 0.00 | 0.03 | 0.03 | 58 | 986.0 |
| 20260830203504 | 84 | 197 | 5.0 | 8.0 | 0.00 | 0.03 | 0.03 | 57 | 986.0 |
| 20260830203004 | 83 | 189 | 5.0 | 11.0 | 0.00 | 0.03 | 0.03 | 59 | 986.0 |
| 20260830202506 | 84 | 186 | 5.0 | 11.0 | 0.00 | 0.03 | 0.03 | 57 | 986.1 |
| 20260830202004 | 84 | 198 | 5.0 | 9.0 | 0.00 | 0.03 | 0.03 | 57 | 986.1 |
| 20260830201504 | 85 | 173 | 6.0 | 10.0 | 0.00 | 0.03 | 0.03 | 57 | 986.2 |
| 20260830201003 | 85 | 184 | 6.0 | 10.0 | 0.00 | 0.03 | 0.03 | 56 | 986.1 |
| 20260830200503 | 85 | 202 | 5.0 | 10.0 | 0.00 | 0.03 | 0.03 | 56 | 986.0 |
| 20260830200003 | 86 | 194 | 5.0 | 11.0 | 0.00 | 0.03 | 0.03 | 56 | 986.0 |
| 20260830195502 | 86 | 233 | 6.0 | 11.0 | 0.00 | 0.03 | 0.03 | 55 | 986.0 |
| 20260830195003 | 87 | 214 | 5.0 | 10.0 | 0.00 | 0.03 | 0.03 | 55 | 986.0 |
| 20260830194503 | 87 | 184 | 5.0 | 10.0 | 0.00 | 0.03 | 0.03 | 53 | 986.0 |
| 20260830194003 | 87 | 189 | 7.0 | 12.0 | 0.00 | 0.03 | 0.03 | 52 | 986.1 |
| 20260830193502 | 88 | 167 | 9.0 | 14.0 | 0.00 | 0.03 | 0.03 | 51 | 986.1 |
| 20260830193004 | 87 | 194 | 7.0 | 12.0 | 0.00 | 0.03 | 0.03 | 52 | 986.0 |
| 20260830192500 | 87 | 216 | 5.0 | 11.0 | 0.00 | 0.03 | 0.03 | 53 | 985.9 |
| 20260830192100 | 87 | 177 | 7.0 | 12.0 | 0.00 | 0.03 | 0.03 | 52 | 985.9 |
| 20260830191600 | 88 | 159 | 7.0 | 12.0 | 0.00 | 0.03 | 0.03 | 51 | 985.9 |
| 20260830191101 | 88 | 141 | 8.0 | 11.0 | 0.00 | 0.03 | 0.03 | 51 | 986.0 |
| 20260830190559 | 88 | 157 | 4.0 | 8.0 | 0.00 | 0.03 | 0.03 | 50 | 985.9 |
| 20260830190057 | 87 | 144 | 4.0 | 8.0 | 0.00 | 0.03 | 0.03 | 51 | 985.9 |
| 20260830185558 | 87 | 178 | 4.0 | 10.0 | 0.00 | 0.03 | 0.03 | 52 | 986.0 |
| 20260830185056 | 86 | 179 | 5.0 | 10.0 | 0.00 | 0.03 | 0.03 | 52 | 986.2 |
| 20260830184605 | 87 | 191 | 6.0 | 10.0 | 0.00 | 0.03 | 0.03 | 51 | 986.3 |
| 20260830184056 | 86 | 178 | 3.0 | 7.0 | 0.00 | 0.03 | 0.03 | 53 | 986.2 |
| 20260830183552 | 86 | 221 | 3.0 | 8.0 | 0.00 | 0.03 | 0.03 | 53 | 986.1 |
| 20260830183054 | 86 | 214 | 3.0 | 8.0 | 0.00 | 0.03 | 0.03 | 54 | 986.1 |
| 20260830182551 | 85 | 161 | 4.0 | 8.0 | 0.00 | 0.03 | 0.03 | 53 | 986.1 |
| 20260830182051 | 85 | 167 | 4.0 | 7.0 | 0.00 | 0.03 | 0.03 | 53 | 986.2 |
| 20260830181550 | 85 | 221 | 2.0 | 5.0 | 0.00 | 0.03 | 0.03 | 56 | 986.2 |
| 20260830181049 | 84 | 190 | 3.0 | 5.0 | 0.00 | 0.03 | 0.03 | 55 | 986.3 |
| 20260830180545 | 84 | 306 | 2.0 | 7.0 | 0.00 | 0.03 | 0.03 | 55 | 986.3 |
| 20260830180043 | 84 | 156 | 0.0 | 7.0 | 0.00 | 0.03 | 0.03 | 56 | 986.3 |
| 20260830175542 | 84 | 155 | 2.0 | 7.0 | 0.00 | 0.03 | 0.03 | 55 | 986.3 |
| 20260830175042 | 84 | 155 | 3.0 | 7.0 | 0.00 | 0.03 | 0.03 | 55 | 986.4 |
| 20260830174542 | 83 | 155 | 1.0 | 7.0 | 0.00 | 0.03 | 0.03 | 56 | 986.4 |
| 20260830174039 | 82 | 166 | 2.0 | 6.0 | 0.00 | 0.03 | 0.03 | 56 | 986.4 |
| 20260830173540 | 82 | 154 | 3.0 | 7.0 | 0.00 | 0.03 | 0.03 | 57 | 986.4 |
| 20260830173036 | 81 | 144 | 2.0 | 7.0 | 0.00 | 0.03 | 0.03 | 58 | 986.4 |
| 20260830172536 | 81 | 189 | 3.0 | 7.0 | 0.00 | 0.03 | 0.03 | 59 | 986.3 |
| 20260830172034 | 80 | 191 | 3.0 | 8.0 | 0.00 | 0.03 | 0.03 | 60 | 986.4 |
| 20260830171534 | 80 | 166 | 5.0 | 8.0 | 0.00 | 0.03 | 0.03 | 62 | 986.5 |
| 20260830171031 | 78 | 167 | 3.0 | 7.0 | 0.00 | 0.03 | 0.03 | 67 | 986.2 |
| 20260830170530 | 77 | 193 | 4.0 | 7.0 | 0.00 | 0.03 | 0.03 | 69 | 986.3 |
| 20260830170027 | 76 | 184 | 2.0 | 6.0 | 0.00 | 0.03 | 0.03 | 73 | 986.3 |
| 20260830165531 | 75 | 167 | 3.0 | 7.0 | 0.00 | 0.03 | 0.03 | 80 | 986.2 |
| 20260830165024 | 74 | 164 | 4.0 | 7.0 | 0.00 | 0.03 | 0.03 | 86 | 986.2 |
| 20260830164533 | 72 | 166 | 3.0 | 6.0 | 0.00 | 0.03 | 0.03 | 91 | 986.2 |
| 20260830164027 | 71 | 182 | 2.0 | 5.0 | 0.00 | 0.03 | 0.03 | 92 | 986.3 |
| 20260830163522 | 70 | 185 | 2.0 | 5.0 | 0.00 | 0.03 | 0.03 | 93 | 986.3 |
| 20260830163020 | 69 | 185 | 0.0 | 4.0 | 0.01 | 0.03 | 0.03 | 93 | 986.3 |
| 20260830162520 | 69 | 185 | 2.0 | 4.0 | 0.01 | 0.03 | 0.03 | 93 | 986.3 |
| 20260830162019 | 69 | 184 | 1.0 | 4.0 | 0.02 | 0.03 | 0.03 | 94 | 986.3 |
| 20260830161527 | 68 | 184 | 1.0 | 3.0 | 0.02 | 0.03 | 0.03 | 93 | 986.2 |
| 20260830161021 | 68 | 184 | 1.0 | 4.0 | 0.03 | 0.03 | 0.03 | 93 | 986.3 |
| 20260830160518 | 69 | 184 | 0.0 | 4.0 | 0.03 | 0.03 | 0.03 | 93 | 986.4 |
| 20260830160017 | 69 | 184 | 1.0 | 4.0 | 0.03 | 0.03 | 0.03 | 93 | 986.4 |
| 20260830155517 | 68 | 186 | 2.0 | 5.0 | 0.03 | 0.03 | 0.03 | 93 | 986.3 |
| 20260830155016 | 68 | 188 | 2.0 | 4.0 | 0.03 | 0.03 | 0.03 | 93 | 986.4 |
| 20260830154515 | 68 | 192 | 2.0 | 5.0 | 0.03 | 0.03 | 0.03 | 93 | 986.3 |
| 20260830154013 | 68 | 194 | 2.0 | 4.0 | 0.03 | 0.03 | 0.03 | 93 | 986.3 |
| 20260830153512 | 68 | 199 | 1.0 | 3.0 | 0.03 | 0.03 | 0.03 | 94 | 986.4 |
| 20260830153012 | 68 | 202 | 2.0 | 4.0 | 0.02 | 0.02 | 0.02 | 93 | 986.4 |
| 20260830152510 | 68 | 201 | 1.0 | 4.0 | 0.02 | 0.02 | 0.02 | 93 | 986.3 |
| 20260830152009 | 69 | 103 | 0.0 | 2.0 | 0.01 | 0.01 | 0.01 | 91 | 986.4 |
| 20260830151509 | 69 | 103 | 0.0 | 0.0 | 0.00 | 0.00 | 0.00 | 91 | 986.5 |
| 20260830151008 | 68 | 103 | 0.0 | 0.0 | 0.00 | 0.00 | 0.00 | 88 | 986.5 |
| 20260830150506 | 67 | 103 | 0.0 | 1.0 | 0.00 | 0.00 | 0.00 | 89 | 986.4 |
| 20260830150006 | 66 | 103 | 0.0 | 2.0 | 0.00 | 0.00 | 0.00 | 90 | 986.2 |
| 20260830145506 | 66 | 103 | 0.0 | 3.0 | 0.00 | 0.00 | 0.00 | 90 | 986.2 |
| 20260830145005 | 65 | 103 | 0.0 | 2.0 | 0.00 | 0.00 | 0.00 | 91 | 986.3 |
| 20260830144505 | 65 | 205 | 0.0 | 0.0 | 0.00 | 0.00 | 0.00 | 91 | 986.3 |
| 20260830144004 | 65 | 205 | 0.0 | 0.0 | 0.00 | 0.00 | 0.00 | 91 | 986.3 |
| 20260830143504 | 64 | 205 | 0.0 | 0.0 | 0.00 | 0.00 | 0.00 | 92 | 986.2 |
| 20260830143003 | 64 | 205 | 0.0 | 0.0 | 0.00 | 0.00 | 0.00 | 92 | 986.2 |
| 20260830142502 | 64 | 205 | 0.0 | 0.0 | 0.00 | 0.00 | 0.00 | 92 | 986.2 |
| 20260830142101 | 64 | 205 | 0.0 | 0.0 | 0.00 | 0.00 | 0.00 | 91 | 985.9 |
| 20260830141600 | 63 | 205 | 0.0 | 0.0 | 0.00 | 0.00 | 0.00 | 91 | 986.0 |
| 20260830141058 | 63 | 205 | 0.0 | 0.0 | 0.00 | 0.00 | 0.00 | 91 | 985.9 |
| 20260830140557 | 63 | 205 | 0.0 | 0.0 | 0.00 | 0.00 | 0.00 | 91 | 985.9 |
| 20260830140055 | 64 | 205 | 0.0 | 0.0 | 0.00 | 0.00 | 0.00 | 90 | 986.0 |
| 20260830135554 | 64 | 205 | 0.0 | 0.0 | 0.00 | 0.00 | 0.00 | 91 | 985.9 |
| 20260830135053 | 64 | 205 | 0.0 | 0.0 | 0.00 | 0.00 | 0.00 | 91 | 985.8 |
| 20260830134553 | 64 | 205 | 0.0 | 0.0 | 0.00 | 0.00 | 0.00 | 91 | 985.9 |
| 20260830134054 | 64 | 205 | 0.0 | 0.0 | 0.00 | 0.00 | 0.00 | 91 | 985.8 |
| 20260830133551 | 64 | 205 | 0.0 | 0.0 | 0.00 | 0.00 | 0.00 | 91 | 985.7 |
| 20260830133053 | 63 | 205 | 0.0 | 0.0 | 0.00 | 0.00 | 0.00 | 90 | 985.6 |
| 20260830132549 | 63 | 205 | 0.0 | 0.0 | 0.00 | 0.00 | 0.00 | 90 | 985.6 |
| 20260830132048 | 64 | 205 | 0.0 | 0.0 | 0.00 | 0.00 | 0.00 | 90 | 985.5 |
| 20260830131547 | 64 | 205 | 0.0 | 0.0 | 0.00 | 0.00 | 0.00 | 91 | 985.4 |
| 20260830131047 | 64 | 205 | 0.0 | 0.0 | 0.00 | 0.00 | 0.00 | 91 | 985.4 |
| 20260830130547 | 64 | 205 | 0.0 | 0.0 | 0.00 | 0.00 | 0.00 | 91 | 985.3 |
| 20260830130104 | 64 | 205 | 0.0 | 0.0 | 0.00 | 0.00 | 0.00 | 90 | 985.2 |
| 20260830125545 | 64 | 205 | 0.0 | 0.0 | 0.00 | 0.00 | 0.00 | 90 | 985.2 |
| 20260830125044 | 64 | 205 | 0.0 | 0.0 | 0.00 | 0.00 | 0.00 | 90 | 985.1 |
| 20260830124544 | 64 | 205 | 0.0 | 0.0 | 0.00 | 0.00 | 0.00 | 90 | 985.0 |
| 20260830124046 | 64 | 205 | 0.0 | 0.0 | 0.00 | 0.00 | 0.00 | 90 | 985.0 |
| 20260830123544 | 64 | 205 | 0.0 | 0.0 | 0.00 | 0.00 | 0.00 | 90 | 985.1 |
| 20260830123043 | 64 | 205 | 0.0 | 0.0 | 0.00 | 0.00 | 0.00 | 90 | 985.0 |
| 20260830122543 | 64 | 205 | 0.0 | 0.0 | 0.00 | 0.00 | 0.00 | 90 | 985.1 |
| 20260830122045 | 64 | 205 | 0.0 | 0.0 | 0.00 | 0.00 | 0.00 | 90 | 985.0 |
| 20260830121544 | 65 | 205 | 0.0 | 0.0 | 0.00 | 0.00 | 0.00 | 90 | 985.0 |
| 20260830121043 | 65 | 205 | 0.0 | 0.0 | 0.00 | 0.00 | 0.00 | 90 | 985.0 |
| 20260830120543 | 65 | 205 | 0.0 | 0.0 | 0.00 | 0.00 | 0.00 | 89 | 984.9 |
| 20260830120049 | 65 | 205 | 0.0 | 0.0 | 0.00 | 0.00 | 0.00 | 89 | 985.0 |
| 20260830115541 | 65 | 205 | 0.0 | 0.0 | 0.00 | 0.00 | 0.00 | 89 | 984.9 |
| 20260830115041 | 65 | 205 | 0.0 | 0.0 | 0.00 | 0.00 | 0.00 | 89 | 985.0 |
| 20260830114606 | 65 | 205 | 0.0 | 0.0 | 0.00 | 0.00 | 0.00 | 89 | 985.0 |
| 20260830114040 | 64 | 205 | 0.0 | 0.0 | 0.00 | 0.00 | 0.00 | 89 | 984.9 |
| 20260830113540 | 64 | 205 | 0.0 | 0.0 | 0.00 | 0.00 | 0.00 | 89 | 985.0 |
| 20260830113046 | 64 | 205 | 0.0 | 0.0 | 0.00 | 0.00 | 0.00 | 89 | 985.0 |
| 20260830112540 | 64 | 205 | 0.0 | 0.0 | 0.00 | 0.00 | 0.00 | 88 | 985.0 |
| 20260830112043 | 64 | 205 | 0.0 | 0.0 | 0.00 | 0.00 | 0.00 | 88 | 985.0 |
| 20260830111540 | 64 | 205 | 0.0 | 0.0 | 0.00 | 0.00 | 0.00 | 88 | 984.9 |
| 20260830111040 | 65 | 205 | 0.0 | 0.0 | 0.00 | 0.00 | 0.00 | 88 | 984.9 |
| 20260830110539 | 65 | 205 | 0.0 | 0.0 | 0.00 | 0.00 | 0.00 | 88 | 984.9 |
| 20260830110038 | 65 | 205 | 0.0 | 0.0 | 0.00 | 0.00 | 0.00 | 88 | 984.8 |
| 20260830105538 | 65 | 205 | 0.0 | 0.0 | 0.00 | 0.00 | 0.00 | 88 | 985.0 |
| 20260830105037 | 65 | 205 | 0.0 | 0.0 | 0.00 | 0.00 | 0.00 | 88 | 985.0 |
| 20260830104538 | 65 | 205 | 0.0 | 0.0 | 0.00 | 0.00 | 0.00 | 88 | 985.0 |
| 20260830104036 | 65 | 205 | 0.0 | 0.0 | 0.00 | 0.00 | 0.00 | 88 | 985.0 |
| 20260830103535 | 65 | 205 | 0.0 | 0.0 | 0.00 | 0.00 | 0.00 | 87 | 984.9 |
| 20260830103035 | 65 | 205 | 0.0 | 0.0 | 0.00 | 0.00 | 0.00 | 87 | 984.9 |
| 20260830102537 | 65 | 205 | 0.0 | 0.0 | 0.00 | 0.00 | 0.00 | 87 | 984.9 |
| 20260830102037 | 66 | 205 | 0.0 | 0.0 | 0.00 | 0.00 | 0.00 | 86 | 984.9 |
| 20260830101543 | 66 | 205 | 0.0 | 0.0 | 0.00 | 0.00 | 0.00 | 87 | 984.9 |
| 20260830101034 | 66 | 205 | 0.0 | 0.0 | 0.00 | 0.00 | 0.00 | 87 | 984.8 |
| 20260830100533 | 66 | 205 | 0.0 | 0.0 | 0.00 | 0.00 | 0.00 | 87 | 984.7 |
| 20260830100035 | 66 | 205 | 0.0 | 0.0 | 0.00 | 0.00 | 0.00 | 87 | 984.7 |
| 20260830095533 | 66 | 205 | 0.0 | 0.0 | 0.00 | 0.00 | 0.00 | 87 | 984.8 |
| 20260830095033 | 66 | 205 | 0.0 | 0.0 | 0.00 | 0.00 | 0.00 | 87 | 984.7 |
| 20260830094533 | 66 | 205 | 0.0 | 0.0 | 0.00 | 0.00 | 0.00 | 87 | 984.7 |
| 20260830094032 | 66 | 205 | 0.0 | 0.0 | 0.00 | 0.00 | 0.00 | 87 | 984.8 |
| 20260830093532 | 66 | 205 | 0.0 | 0.0 | 0.00 | 0.00 | 0.00 | 87 | 984.7 |
| 20260830093033 | 66 | 205 | 0.0 | 0.0 | 0.00 | 0.00 | 0.00 | 86 | 984.7 |
| 20260830092534 | 66 | 205 | 0.0 | 0.0 | 0.00 | 0.00 | 0.00 | 86 | 984.6 |
| 20260830092031 | 66 | 205 | 0.0 | 0.0 | 0.00 | 0.00 | 0.00 | 87 | 984.7 |
| 20260830091535 | 66 | 205 | 0.0 | 0.0 | 0.00 | 0.00 | 0.00 | 86 | 984.7 |
| 20260830091030 | 66 | 205 | 0.0 | 0.0 | 0.00 | 0.00 | 0.00 | 86 | 984.7 |
| 20260830090530 | 66 | 205 | 0.0 | 0.0 | 0.00 | 0.00 | 0.00 | 86 | 984.7 |
| 20260830090028 | 66 | 205 | 0.0 | 0.0 | 0.00 | 0.00 | 0.00 | 86 | 984.6 |
| 20260830085533 | 67 | 205 | 0.0 | 0.0 | 0.00 | 0.00 | 0.00 | 86 | 984.5 |
| 20260830085030 | 67 | 205 | 0.0 | 0.0 | 0.00 | 0.00 | 0.00 | 86 | 984.6 |
| 20260830084527 | 67 | 205 | 0.0 | 0.0 | 0.00 | 0.00 | 0.00 | 86 | 984.6 |
| 20260830084027 | 67 | 205 | 0.0 | 0.0 | 0.00 | 0.00 | 0.00 | 86 | 984.7 |
| 20260830083527 | 67 | 205 | 0.0 | 0.0 | 0.00 | 0.00 | 0.00 | 86 | 984.8 |
| 20260830083029 | 67 | 205 | 0.0 | 0.0 | 0.00 | 0.00 | 0.00 | 85 | 984.6 |
| 20260830082525 | 67 | 205 | 0.0 | 0.0 | 0.00 | 0.00 | 0.00 | 85 | 984.7 |
| 20260830082025 | 67 | 205 | 0.0 | 0.0 | 0.00 | 0.00 | 0.00 | 85 | 984.7 |
| 20260830081525 | 67 | 205 | 0.0 | 0.0 | 0.00 | 0.00 | 0.00 | 84 | 984.7 |
| 20260830081024 | 68 | 205 | 0.0 | 0.0 | 0.00 | 0.00 | 0.00 | 84 | 984.7 |
| 20260830080523 | 68 | 205 | 0.0 | 0.0 | 0.00 | 0.00 | 0.00 | 84 | 984.7 |
| 20260830080023 | 68 | 205 | 0.0 | 0.0 | 0.00 | 0.00 | 0.00 | 84 | 984.6 |
| 20260830075523 | 68 | 205 | 0.0 | 0.0 | 0.00 | 0.00 | 0.00 | 84 | 984.7 |
| 20260830075025 | 68 | 205 | 0.0 | 0.0 | 0.00 | 0.00 | 0.00 | 84 | 984.7 |
| 20260830074523 | 68 | 205 | 0.0 | 0.0 | 0.00 | 0.00 | 0.00 | 82 | 984.7 |
| 20260830074020 | 69 | 205 | 0.0 | 0.0 | 0.00 | 0.00 | 0.00 | 82 | 984.8 |
| 20260830073520 | 69 | 205 | 0.0 | 0.0 | 0.00 | 0.00 | 0.00 | 83 | 984.7 |
| 20260830073020 | 69 | 205 | 0.0 | 0.0 | 0.00 | 0.00 | 0.00 | 83 | 984.9 |
| 20260830072519 | 69 | 205 | 0.0 | 0.0 | 0.00 | 0.00 | 0.00 | 83 | 984.8 |
| 20260830072019 | 69 | 205 | 0.0 | 0.0 | 0.00 | 0.00 | 0.00 | 83 | 984.7 |
| 20260830071519 | 69 | 205 | 0.0 | 0.0 | 0.00 | 0.00 | 0.00 | 83 | 984.7 |
| 20260830071018 | 69 | 205 | 0.0 | 0.0 | 0.00 | 0.00 | 0.00 | 83 | 984.7 |
| 20260830070518 | 69 | 205 | 0.0 | 0.0 | 0.00 | 0.00 | 0.00 | 82 | 984.6 |
| 20260830070017 | 69 | 205 | 0.0 | 0.0 | 0.00 | 0.00 | 0.00 | 82 | 984.5 |
| 20260830065515 | 69 | 205 | 0.0 | 0.0 | 0.00 | 0.00 | 0.00 | 81 | 984.5 |
| 20260830065015 | 69 | 205 | 0.0 | 0.0 | 0.00 | 0.00 | 0.00 | 81 | 984.5 |
| 20260830064515 | 69 | 205 | 0.0 | 0.0 | 0.00 | 0.00 | 0.00 | 81 | 984.4 |
| 20260830064015 | 69 | 205 | 0.0 | 0.0 | 0.00 | 0.00 | 0.00 | 81 | 984.4 |
| 20260830063515 | 69 | 205 | 0.0 | 0.0 | 0.00 | 0.00 | 0.00 | 81 | 984.5 |
| 20260830063015 | 69 | 205 | 0.0 | 0.0 | 0.00 | 0.00 | 0.00 | 81 | 984.4 |
| 20260830062515 | 69 | 205 | 0.0 | 0.0 | 0.00 | 0.00 | 0.00 | 80 | 984.5 |
| 20260830062014 | 70 | 205 | 0.0 | 0.0 | 0.00 | 0.00 | 0.00 | 80 | 984.5 |
| 20260830061515 | 70 | 205 | 0.0 | 0.0 | 0.00 | 0.00 | 0.00 | 80 | 984.6 |
| 20260830061014 | 70 | 205 | 0.0 | 0.0 | 0.00 | 0.00 | 0.00 | 80 | 984.6 |
| 20260830060517 | 70 | 205 | 0.0 | 0.0 | 0.00 | 0.00 | 0.00 | 79 | 984.7 |
| 20260830060016 | 71 | 205 | 0.0 | 0.0 | 0.00 | 0.00 | 0.00 | 79 | 984.8 |
| 20260830055515 | 71 | 205 | 0.0 | 0.0 | 0.00 | 0.00 | 0.00 | 79 | 984.7 |
| 20260830055015 | 71 | 205 | 0.0 | 0.0 | 0.00 | 0.00 | 0.00 | 79 | 984.8 |
| 20260830054514 | 71 | 205 | 0.0 | 0.0 | 0.00 | 0.00 | 0.00 | 79 | 984.8 |
| 20260830054014 | 71 | 205 | 0.0 | 0.0 | 0.00 | 0.00 | 0.00 | 78 | 984.8 |
| 20260830053513 | 71 | 205 | 0.0 | 0.0 | 0.00 | 0.00 | 0.00 | 77 | 984.9 |
| 20260830053013 | 71 | 205 | 0.0 | 0.0 | 0.00 | 0.00 | 0.00 | 77 | 984.8 |
| 20260830052513 | 71 | 205 | 0.0 | 0.0 | 0.00 | 0.00 | 0.00 | 77 | 984.8 |
| 20260830052017 | 71 | 205 | 0.0 | 0.0 | 0.00 | 0.00 | 0.00 | 78 | 984.8 |
| 20260830051513 | 71 | 205 | 0.0 | 0.0 | 0.00 | 0.00 | 0.00 | 78 | 984.6 |
| 20260830051013 | 72 | 205 | 0.0 | 0.0 | 0.00 | 0.00 | 0.00 | 77 | 984.7 |
| 20260830050513 | 72 | 205 | 0.0 | 0.0 | 0.00 | 0.00 | 0.00 | 77 | 984.6 |
| 20260830050013 | 72 | 205 | 0.0 | 0.0 | 0.00 | 0.00 | 0.00 | 77 | 984.6 |
| 20260830045516 | 73 | 205 | 0.0 | 0.0 | 0.00 | 0.00 | 0.00 | 76 | 984.6 |
| 20260830045012 | 73 | 205 | 0.0 | 0.0 | 0.00 | 0.00 | 0.00 | 77 | 984.7 |
| 20260830044516 | 73 | 205 | 0.0 | 0.0 | 0.00 | 0.00 | 0.00 | 77 | 984.7 |
| 20260830044013 | 73 | 205 | 0.0 | 0.0 | 0.00 | 0.00 | 0.00 | 76 | 984.6 |
| 20260830043516 | 73 | 205 | 0.0 | 0.0 | 0.00 | 0.00 | 0.00 | 76 | 984.7 |
| 20260830043020 | 74 | 205 | 0.0 | 0.0 | 0.00 | 0.00 | 0.00 | 76 | 984.8 |
| 20260830042511 | 74 | 205 | 0.0 | 0.0 | 0.00 | 0.00 | 0.00 | 74 | 984.8 |
| 20260830042012 | 74 | 205 | 0.0 | 0.0 | 0.00 | 0.00 | 0.00 | 75 | 984.7 |
| 20260830041512 | 74 | 205 | 0.0 | 2.0 | 0.00 | 0.00 | 0.00 | 75 | 984.7 |
| 20260830041011 | 75 | 205 | 0.0 | 3.0 | 0.00 | 0.00 | 0.00 | 75 | 984.6 |
| 20260830040512 | 75 | 205 | 1.0 | 3.0 | 0.00 | 0.00 | 0.00 | 73 | 984.6 |
| 20260830040014 | 75 | 205 | 0.0 | 2.0 | 0.00 | 0.00 | 0.00 | 71 | 984.5 |
| 20260830035510 | 75 | 205 | 0.0 | 0.0 | 0.00 | 0.00 | 0.00 | 71 | 984.4 |
| 20260830035010 | 75 | 205 | 0.0 | 0.0 | 0.00 | 0.00 | 0.00 | 71 | 984.3 |
| 20260830034510 | 76 | 205 | 0.0 | 0.0 | 0.00 | 0.00 | 0.00 | 71 | 984.2 |